| time (UTC) | temp C | wind direction | speed KPH | gust KPH | rain 1hr cm | rain 24hr cm | rain mn cm | humidity % | barometer mb |
| 20260505110223 | 12 | 311 | 0.0 | 0.0 | 0.00 | 0.00 | 0.00 | 82 | 1013.2 |
| 20260505100223 | 12 | 311 | 0.0 | 1.6 | 0.00 | 0.00 | 0.00 | 82 | 1012.8 |
| 20260505093223 | 12 | 311 | 0.0 | 0.0 | 0.00 | 0.00 | 0.00 | 82 | 1012.8 |
| 20260505090223 | 12 | 311 | 0.0 | 0.0 | 0.00 | 0.00 | 0.00 | 81 | 1012.4 |
| 20260505083223 | 12 | 311 | 0.0 | 1.6 | 0.00 | 0.00 | 0.00 | 81 | 1012.3 |
| 20260505080223 | 12 | 311 | 0.0 | 1.6 | 0.00 | 0.00 | 0.00 | 80 | 1012.4 |
| 20260505073222 | 12 | 311 | 0.0 | 3.2 | 0.00 | 0.00 | 0.00 | 79 | 1011.9 |
| 20260505063222 | 13 | 302 | 0.0 | 6.4 | 0.00 | 0.00 | 0.00 | 74 | 1011.3 |
| 20260505060222 | 15 | 330 | 0.0 | 3.2 | 0.00 | 0.00 | 0.00 | 71 | 1010.8 |
| 20260505053222 | 15 | 341 | 0.0 | 1.6 | 0.00 | 0.00 | 0.00 | 67 | 1010.7 |
| 20260505050222 | 16 | 341 | 0.0 | 6.4 | 0.00 | 0.00 | 0.00 | 64 | 1010.5 |
| 20260505033222 | 20 | 323 | 0.0 | 8.0 | 0.00 | 0.00 | 0.00 | 55 | 1009.2 |
| 20260505030222 | 21 | 192 | 0.0 | 11.3 | 0.00 | 0.00 | 0.00 | 58 | 1008.6 |
| 20260505023222 | 22 | 154 | 0.0 | 11.3 | 0.00 | 0.00 | 0.00 | 55 | 1008.3 |
| 20260505020222 | 22 | 142 | 3.2 | 11.3 | 0.00 | 0.00 | 0.00 | 53 | 1008.3 |
| 20260505013221 | 23 | 169 | 4.8 | 14.5 | 0.00 | 0.00 | 0.00 | 50 | 1008.4 |
| 20260505010221 | 25 | 228 | 0.0 | 8.0 | 0.00 | 0.00 | 0.00 | 45 | 1008.6 |
| 20260505003220 | 24 | 252 | 0.0 | 8.0 | 0.00 | 0.00 | 0.00 | 44 | 1008.7 |
| 20260505000220 | 23 | 153 | 3.2 | 11.3 | 0.00 | 0.00 | 0.00 | 45 | 1009.0 |
| 20260504233220 | 23 | 236 | 0.0 | 14.5 | 0.00 | 0.00 | 0.00 | 45 | 1009.1 |
| 20260504230220 | 23 | 309 | 0.0 | 11.3 | 0.00 | 0.00 | 0.00 | 45 | 1009.3 |
| 20260504223219 | 22 | 159 | 1.6 | 11.3 | 0.00 | 0.00 | 0.00 | 48 | 1009.8 |
| 20260504220219 | 22 | 174 | 0.0 | 12.9 | 0.00 | 0.00 | 0.00 | 48 | 1010.1 |
| 20260504213219 | 21 | 163 | 4.8 | 11.3 | 0.00 | 0.00 | 0.00 | 49 | 1010.4 |
| 20260504210219 | 21 | 156 | 4.8 | 14.5 | 0.00 | 0.00 | 0.00 | 50 | 1010.7 |
| 20260504200217 | 18 | 165 | 0.0 | 14.5 | 0.00 | 0.00 | 0.00 | 57 | 1011.3 |
| 20260504183218 | 15 | 184 | 1.6 | 11.3 | 0.00 | 0.00 | 0.00 | 68 | 1012.1 |
| 20260504180217 | 15 | 167 | 3.2 | 11.3 | 0.00 | 0.00 | 0.00 | 70 | 1012.0 |
| 20260504173217 | 15 | 144 | 8.0 | 16.1 | 0.00 | 0.00 | 0.00 | 71 | 1012.1 |
| 20260504170217 | 14 | 153 | 4.8 | 12.9 | 0.00 | 0.00 | 0.00 | 72 | 1011.8 |
| 20260504150217 | 13 | 100 | 4.8 | 11.3 | 0.00 | 0.00 | 0.00 | 76 | 1011.2 |
| 20260504140217 | 13 | 123 | 0.0 | 9.7 | 0.00 | 0.00 | 0.00 | 77 | 1010.6 |
| 20260504130217 | 13 | 139 | 0.0 | 6.4 | 0.00 | 0.00 | 0.00 | 75 | 1009.7 |